Location: Beaurecueil
(43.5122°N, 5.5450°E)
Time: 20:51:31
(UTC+00:00)

H-2A R/B - Pass Details

Date: 18 September 2020
Orbit: 734 x 836 km, 98.2° (Epoch: 27 October)

Event Time Altitude Azimuth Distance (km) Brightness Sun altitude
Rises 19:12:23 0° 181° (S) 3,153 5.0 -16.9°
Reaches altitude 10° 19:14:43 10° 187° (S) 2,241 4.3 -17.3°
Maximum altitude 19:19:26 47° 261° (W) 994 3.0 -18.1°
Drops below altitude 10° 19:24:18 10° 335° (NNW) 2,302 5.1 -18.9°
Sets 19:26:44 0° 342° (NNW) 3,247 5.8 -19.4°
